STARLINK-32595, 62037

Orbit data source: Space-Track

STARLINK-32595, 62037 is a payload satellite owned by SpaceX/Seattle (US) in LEO that was launched on Thu, 21 Nov 2024 UTC via an FALCON 9 launch vehicle from the Air Force Eastern Test Range (AFETR). Payload-class satellites include a variety of spacecraft equipped with specific instruments for various scientific and technological missions. These include communications satellites like Starlink; space stations such as the ISS; scientific satellites like the Hubble; Earth observation satellites from companies like Planet Labs, Umbra, and HawkEye 360; GPS; miniature CubeSats for education and research; and military/defense satellites.

Loading next visibility...
Identifier
62037, 2024-216F
Orbit
LEO
Last TLE update
8 hours ago
Origin
Manufacturer
SpaceX/Seattle
Mission
Operational Commercial Communications
Bus & Motor
STARLINK V2M, Unknown motor
Mass
730 kg wet, ~700 kg dry
Launch date (UTC)
2024-11-21 (7 months ago)
Launch vehicle
FALCON 9
Launch site
Air Force Eastern Test Range (AFETR)
Object type
Payload
Rocket body
Debris
Shape & HBR
Box + 2 Pan, 29 m
Radar Cross Section
36.964 m², Large (>1 m²)

Expand to show TLE details & history

TLE from 8 hours ago
0 STARLINK-32595
1 62037U 24216F   25182.87488970  .00018962  00000-0  69661-3 0  9999
2 62037  43.0021 239.9839 0002092 268.7674  91.2938 15.27588248 35444
Epoch: 2025-07-01T20:59Z
TLE epoch observation values (Epoch: 2025-07-01T20:59:50.47Z)
Latitude
-0°
Longitude
4.85953°
Altitude
482.833 km
Speed
7.626 km/s
True Right ascension
15h 59m 56s
True Declination
0° 00' 00"
Sunlit
Object was in full shadow at epoch
Visualization orbit readout
Latitude
-19.35214°
Longitude
-18.95297°
Altitude
486.5 km
Speed
7.623 km/s
Apparent Right ascension
11h 14m 20s
Apparent Declination
-62° 22' 49"
Sunlit
Object is in full shadow
Visualization observer readout
Local Sidereal Time
16:24:30
Azimuth
211.326° SW
Elevation
-29.461°
Doppler factor
1
Orbital elements
Apogee altitude
486.405 km
Perigee altitude
483.533 km
Semi-major axis
6,863.106 km
Eccentricity
0.00021
Inclination
43.0021°
RAAN
239.9839°
Arg. of periapsis
268.7674°
True anomaly
Unknown
Mean anomaly
91.2938°
Eccentric anomaly
Unknown
Mean motion
3.81735 °/min
Orbital period
94.31 mins
BSTAR
0.00069661
Loading maneuver chart data...
Loading SW <> Apogee altitude chart data...
Loading historical data...
Loading historical data...
Loading historical data...
Loading historical data...
Loading historical data...
Loading historical data...
Loading historical data...

STARLINK-32595 Visibility forecast

Observer location: undefined°, undefined°

Span
Click to sort rows by Start time (UTC) header in descending order
Start Az.
Max El. time (UTC)
Max El. Az.
Max El.
End time (UTC)
End Az.
5 mins2025-07-02 06:36:03.381Z189.589° SSW2025-07-02 06:38:03.381Z153.074° SSE19.712°2025-07-02 06:41:03.381Z96.727° ESE
5 mins2025-07-02 08:15:03.381Z248.3° W2025-07-02 08:17:03.381Z127.522° SE44.92°2025-07-02 08:20:03.381Z72.44° E
5 mins2025-07-02 09:54:03.381Z290.353° WNW2025-07-02 09:56:03.381Z353.109° N38.043°2025-07-02 09:59:03.381Z72.591° E
5 mins2025-07-02 11:33:03.381Z291.258° WNW2025-07-02 11:35:03.381Z326.607° NNW43.762°2025-07-02 11:38:03.381Z102.234° ESE
5 mins2025-07-02 13:12:03.381Z259.03° W2025-07-02 13:14:03.381Z211.807° SW25.187°2025-07-02 13:17:03.381Z154.033° SSE
|